Probability
0 0 0 0 0 0 0 0 0 0 0 4 23 52 67 69 75 86 94 90 78 62 40 21 10 8 9 12 19 27 29 21 11 3 0 0 0 0 0 0 0 0 0 0
0 0 0 0 0 0 0 0 0 0 0 2 11 24 35 42 56 78 92 89 80 62 36 14 5 3 4 7 10 15 16 12 6 2 0 0 0 0 0 0 0 0 0 0
0 0 0 0 0 0 0 0 0 0 0 0 1 3 9 23 45 71 88 87 74 51 23 5 0 0 0 1 3 5 5 5 4 4 3 2 1 0 0 0 0 0 0 0
0 0 0 0 0 0 0 0 0 0 0 0 0 0 5 19 40 60 75 75 55 27 8 1 0 0 0 0 0 1 3 4 5 7 8 6 2 0 0 0 0 0 0 0
0 0 0 0 0 0 0 0 0 0 0 0 0 0 3 12 22 32 45 46 28 9 1 0 0 0 0 0 0 0 1 2 4 7 7 6 3 1 0 0 0 0 0 0
0 0 0 0 0 0 0 0 0 0 0 0 0 0 1 3 5 8 13 14 8 2 0 0 0 0 0 0 0 0 0 0 1 2 2 2 2 1 0 0 0 0 0 0
0 0 0 0 0 0 0 0 0 0 0 0 0 0 0 0 0 0 0 1 0 0 0 0 0 0 0 0 0 0 0 0 0 0 0 0 1 1 0 0 0 0 0 0
0 0 0 0 0 0 0 0 0 0 0 0 0 0 0 0 0 0 0 0 0 0 0 0 0 0 0 0 0 0 0 0 0 0 0 0 0 0 0 0 0 0 0 0
0 0 0 0 0 0 0 0 0 0 0 0 0 0 0 0 0 0 0 0 0 0 0 0 0 0 0 0 0 0 0 0 0 0 0 0 0 0 0 0 0 0 0 0
0 0 0 0 0 0 0 0 0 0 0 0 0 0 0 0 0 0 0 0 0 0 0 0 0 0 0 0 0 0 0 0 0 0 0 0 0 0 0 0 0 0 0 0
0 0 0 0 0 0 0 0 0 0 0 0 0 0 0 0 0 0 0 0 0 0 0 0 0 0 0 0 0 0 0 0 0 0 0 0 0 0 0 0 0 0 0 0
0 0 0 0 0 0 0 0 0 0 0 0 0 0 0 0 0 0 0 0 0 0 0 0 0 0 0 0 0 0 0 0 0 0 0 0 0 0 0 0 0 0 0 0
0 0 0 0 0 0 0 0 0 0 0 0 0 0 0 0 0 0 0 0 0 0 0 0 0 0 0 0 0 0 0 0 0 0 0 0 0 0 0 0 0 0 0 0
0 0 0 0 0 0 0 0 0 0 0 0 0 0 0 0 0 0 0 0 0 0 0 0 0 0 0 0 0 0 0 0 0 0 0 0 0 0 0 0 0 0 0 0
0 0 0 0 0 0 0 0 0 0 0 0 0 0 0 0 0 0 0 0 0 0 0 0 0 0 0 0 0 0 0 0 0 0 0 0 0 0 0 0 0 0 0 0
0 0 0 0 0 0 0 0 0 0 0 0 0 0 0 0 0 0 0 0 0 0 0 0 0 0 0 0 0 0 0 0 0 0 0 0 0 0 0 0 0 0 0 0
0 0 0 0 0 0 0 0 0 0 0 0 0 0 0 0 0 0 0 0 0 0 0 0 0 0 0 0 0 0 0 0 0 0 0 0 0 0 0 0 0 0 0 0
0 0 0 0 0 0 0 0 0 0 0 0 0 0 0 0 0 0 0 0 0 0 0 0 0 0 0 0 0 0 0 0 0 0 0 0 0 0 0 0 0 0 0 0
0 0 0 0 0 0 0 0 0 0 0 0 0 0 0 0 0 0 0 0 0 0 0 0 0 0 0 0 0 0 0 0 0 0 0 0 0 0 0 0 0 0 0 0
0 0 0 0 0 0 0 0 0 0 0 0 0 0 0 0 0 0 0 0 0 0 0 0 0 0 0 0 0 0 0 0 0 0 0 0 0 0 0 0 0 0 0 0
0 0 0 0 0 0 0 0 0 0 0 0 0 0 0 0 0 0 0 0 0 0 0 0 0 0 0 0 0 0 0 0 0 0 0 0 0 0 0 0 0 0 0 0
0 0 0 0 0 0 0 0 0 0 0 0 0 0 0 0 0 0 0 0 0 0 0 0 0 0 0 0 0 0 0 0 0 0 0 0 0 0 0 0 0 0 0 0
0 0 0 0 0 0 0 0 0 0 0 0 0 0 0 0 0 0 0 0 0 0 0 0 0 0 0 0 0 0 0 0 0 0 0 0 0 0 0 0 0 0 0 0
0 0 0 0 0 0 0 0 0 0 0 0 0 0 0 0 0 0 0 0 0 0 0 0 0 0 0 0 0 0 0 0 0 0 0 0 0 0 0 0 0 0 0 0
0 0 0 0 0 0 0 0 0 0 0 0 0 0 0 0 0 0 0 0 0 0 0 0 0 0 0 0 0 0 0 0 0 0 0 0 0 0 0 0 0 0 0 0
0 0 0 0 0 0 0 0 0 0 0 0 0 0 0 0 0 0 0 0 0 0 0 0 0 0 0 0 0 0 0 0 0 0 0 0 0 0 0 0 0 0 0 0
Wind_Speed
3 3 2 5 5 4 1 1 3 4 4 6 6 5 4 3 5 7 6 5 4 3 1 0 0 1 2 2 3 3 3 3 3 2 2 2 2 2 1 2 3 4 4 4
5 4 5 4 3 3 2 1 2 3 5 4 5 4 3 1 2 5 8 8 7 4 2 3 4 3 3 3 2 3 3 3 3 2 2 2 2 1 2 2 3 3 4 5
2 6 5 2 2 3 1 2 2 2 3 4 4 3 3 2 1 3 5 6 5 6 8 8 7 6 5 5 5 4 5 4 3 3 1 1 1 1 2 2 2 3 4 5
3 5 3 1 1 1 2 3 2 1 1 2 1 2 4 3 3 6 7 6 7 8 9 8 8 7 8 7 5 5 5 4 3 3 3 3 2 2 2 1 3 5 6 7
5 3 3 2 3 2 3 3 4 2 1 1 3 2 7 2 4 8 8 8 11 12 11 10 9 8 6 4 4 4 4 4 3 3 4 4 3 3 1 1 3 5 6 7
4 3 2 2 1 2 3 6 6 5 5 1 1 2 6 5 9 7 8 9 12 12 9 8 6 4 4 3 4 3 4 5 4 5 5 6 6 5 3 2 3 4 4 5
8 8 4 1 1 3 6 7 6 8 6 4 4 2 10 9 8 9 11 14 13 8 6 7 7 6 6 6 5 4 5 6 5 5 5 6 6 5 4 3 3 4 4 5
2 8 5 2 2 3 2 8 6 3 4 6 4 5 9 6 6 6 8 7 5 4 5 7 8 7 7 8 6 5 6 7 5 5 5 4 5 3 3 4 4 4 4 6
5 7 6 4 3 4 4 3 5 6 2 2 6 7 10 5 5 3 2 2 4 6 7 7 8 8 7 7 6 6 6 6 5 5 5 5 5 5 5 5 4 4 4 5
7 4 6 6 4 3 2 7 5 5 3 4 6 5 5 11 13 9 8 9 9 9 10 10 9 9 8 6 6 4 4 4 3 4 5 5 6 6 6 5 5 5 4 4
3 3 6 7 3 3 2 3 5 4 3 4 4 6 3 8 9 5 9 10 9 10 11 12 13 12 11 10 9 8 7 6 5 5 6 6 7 7 6 5 6 4 4 4
3 5 3 7 6 3 1 3 6 2 4 4 4 6 5 6 9 10 10 9 9 9 10 11 13 14 14 13 11 10 9 8 7 6 6 7 7 6 7 7 6 4 4 4
6 5 4 9 8 5 2 1 4 4 3 4 5 4 4 7 10 10 9 9 9 11 12 12 12 12 11 11 11 11 10 10 9 7 7 8 8 8 9 9 7 5 4 3
7 5 6 6 8 4 5 6 2 5 3 5 7 3 6 9 9 8 8 8 9 10 11 11 10 10 10 9 9 9 9 8 9 9 7 9 10 10 10 8 7 6 4 3
5 4 6 7 6 3 5 8 6 2 5 6 1 5 6 9 8 8 8 10 13 14 14 13 12 12 11 11 10 9 9 9 9 9 8 9 10 9 9 8 7 6 5 4
3 2 2 3 4 3 4 5 3 5 6 3 7 7 8 8 10 12 12 14 16 16 17 16 14 13 13 12 12 11 10 9 9 9 9 9 9 9 9 9 8 7 6 5
1 3 2 4 4 3 5 9 5 7 7 7 5 4 9 11 14 13 14 16 16 15 15 14 13 12 11 10 11 11 10 9 8 8 8 9 9 9 9 8 8 8 8 7
4 3 2 2 3 1 2 4 9 9 7 6 5 4 8 10 11 10 12 15 15 14 13 13 12 12 11 11 11 12 10 9 9 8 8 8 8 9 8 6 8 8 6 7
3 4 3 2 1 1 4 6 6 2 3 2 4 9 11 11 10 9 13 15 14 13 12 12 12 12 11 11 11 11 10 9 9 9 8 7 7 8 8 7 8 7 6 7
5 5 4 2 1 2 5 12 13 2 2 4 7 11 13 10 9 9 7 10 13 14 13 13 12 11 11 12 10 10 11 9 11 11 9 8 7 7 8 8 8 5 7 8
8 7 5 2 1 4 5 11 10 6 8 12 12 13 13 11 14 15 14 15 16 17 17 16 14 13 12 11 9 11 11 11 12 10 10 10 8 7 7 6 6 6 7 7
4 5 5 4 4 2 6 6 6 6 11 13 14 14 15 16 17 17 17 16 16 17 16 16 14 15 13 10 9 12 13 14 12 10 11 11 9 8 6 5 5 6 7 9
5 1 1 2 1 6 4 4 8 10 12 13 13 15 15 16 17 16 16 16 16 16 16 14 14 15 13 11 10 13 14 13 11 11 12 12 10 8 7 7 5 4 6 8
5 3 4 1 3 5 8 10 11 11 12 12 13 15 14 16 18 18 17 16 15 15 14 14 14 15 15 13 12 13 13 11 11 12 12 11 9 9 8 7 5 4 4 7
3 3 3 2 6 9 8 9 10 9 10 12 13 14 14 16 19 19 18 17 16 15 13 13 13 15 16 14 14 13 12 10 11 12 12 10 9 8 7 7 7 7 5 5
2 1 0 4 8 6 10 10 9 10 11 13 15 15 13 15 19 20 17 16 16 16 15 15 16 17 17 16 14 12 11 11 11 10 10 8 7 7 6 6 6 8 9 11
Wind_Direction
31 57 264 242 208 211 254 242 274 289 328 55 58 80 55 80 114 119 122 136 165 150 116 103 178 155 158 169 168 171 171 174 160 160 180 209 244 258 262 258 266 282 293 296
13 319 264 244 216 195 203 195 301 305 347 75 78 52 350 310 187 155 160 176 181 171 188 231 237 234 225 220 201 192 199 201 193 177 186 193 213 256 272 290 309 324 327 315
259 271 308 348 72 100 127 182 243 291 10 50 86 12 323 312 72 155 183 191 190 191 207 223 228 230 232 235 227 219 218 219 219 202 177 146 34 347 336 335 331 331 320 307
289 275 312 341 336 126 273 246 240 262 48 296 86 228 268 288 228 203 199 200 209 220 223 225 225 227 226 231 232 232 229 227 227 200 198 196 199 234 247 290 303 311 314 312
289 309 334 324 307 287 235 53 53 26 175 12 16 173 278 300 249 230 212 207 213 220 220 223 226 230 237 240 237 239 249 260 253 226 214 203 205 208 215 246 285 297 303 305
272 307 285 262 327 28 84 62 48 44 65 55 308 175 274 230 220 230 227 225 225 228 230 240 248 255 266 265 255 243 245 259 251 231 213 200 202 197 208 251 284 294 298 300
336 330 319 243 336 9 68 68 19 0 8 270 282 238 252 246 226 213 215 225 228 234 247 262 272 275 274 270 256 231 227 249 247 227 211 201 195 187 200 234 263 287 303 308
330 308 299 304 229 232 140 130 151 213 247 286 316 245 255 258 263 238 232 236 247 279 292 290 285 282 275 266 255 227 222 243 245 227 214 194 179 179 206 230 244 265 285 296
197 261 299 325 307 163 138 154 155 134 186 278 289 288 303 330 322 312 299 357 6 1 345 320 309 298 284 274 260 231 226 239 238 227 214 197 193 199 218 235 245 256 270 289
169 247 297 314 17 38 116 132 97 118 164 264 292 290 289 323 323 344 34 45 36 24 14 4 355 346 339 328 318 313 296 284 271 237 221 212 209 214 223 234 251 261 273 285
158 182 303 343 8 342 34 79 96 107 158 175 255 273 332 314 322 24 57 51 38 29 21 17 14 10 8 9 6 357 347 331 306 266 239 226 221 222 227 235 248 262 272 293
115 119 287 291 284 299 234 140 137 122 264 196 212 266 7 25 45 61 52 39 29 26 22 20 16 14 14 10 2 355 345 328 302 278 254 240 233 227 232 239 244 249 267 285
129 100 17 343 339 350 20 159 153 137 153 188 200 244 50 40 49 46 42 29 19 18 18 16 11 7 1 357 353 348 344 335 322 303 274 258 245 235 235 238 238 236 250 277
111 121 165 215 236 260 295 289 226 143 192 232 224 177 33 22 29 26 23 18 13 11 9 5 359 352 345 341 339 336 333 332 329 318 292 272 260 248 241 235 230 226 227 243
109 188 221 238 252 267 269 289 309 229 219 221 265 83 18 5 1 356 360 1 360 356 352 348 343 339 335 332 331 330 327 329 329 325 316 295 280 265 251 237 225 215 210 214
76 205 217 278 280 272 283 330 3 29 16 55 86 56 356 350 353 348 347 347 345 341 337 331 327 323 318 318 316 313 311 313 318 323 324 320 309 288 263 244 222 207 200 199
69 133 128 273 304 346 10 352 32 57 32 28 55 16 342 343 347 340 329 325 323 322 315 307 304 298 294 296 302 294 288 295 303 308 313 320 325 317 291 260 228 212 199 193
120 104 128 301 3 336 138 73 92 101 76 70 69 346 324 300 289 275 268 267 270 274 280 286 287 285 284 289 297 291 285 292 297 299 304 312 321 326 316 279 244 225 202 196
115 126 96 77 340 315 98 7 355 348 97 16 319 301 291 279 279 267 254 249 253 263 271 274 275 277 280 284 290 291 286 289 293 294 296 303 310 315 316 299 267 239 213 204
49 68 88 72 308 321 353 325 319 240 115 249 274 288 296 309 302 290 268 267 274 284 287 284 283 281 276 273 276 279 278 283 284 283 282 282 285 290 300 302 288 250 223 215
7 12 38 23 303 64 322 329 21 43 305 293 287 282 286 275 269 280 284 283 282 284 284 283 282 278 271 268 271 271 271 268 268 270 269 266 265 267 273 288 299 272 239 217
43 17 7 9 17 1 318 20 35 280 266 272 278 280 281 282 284 288 289 287 285 285 281 277 274 273 273 269 267 271 272 270 269 270 270 263 258 260 268 263 288 284 254 226
49 18 92 95 228 250 277 253 248 255 270 278 286 293 295 296 295 294 291 289 289 285 282 277 273 274 272 265 257 263 269 271 271 270 270 267 263 259 257 250 253 279 264 238
359 15 93 67 294 289 275 265 271 283 290 296 299 301 300 296 296 297 296 294 289 285 282 281 280 277 274 266 258 256 264 266 263 263 265 263 260 261 261 252 237 238 262 251
345 26 45 315 283 293 285 287 299 309 312 308 305 303 297 294 296 296 297 294 292 289 285 282 279 277 274 267 258 254 257 259 257 259 260 254 250 253 260 255 240 232 241 256
335 90 86 265 268 279 288 297 304 306 305 302 304 302 297 293 295 298 297 295 294 292 289 288 285 282 279 272 265 258 255 252 251 259 257 246 243 245 247 256 263 245 251 268